Location: Unspecified
(48.8656°N, 0.0000°E)
Time: 20:21:09
(UTC+00:00)

Transit 2A Rocket - Pass Details

Date: 23 June 2019
Orbit: 588 x 915 km, 66.7° (Epoch: 16 July)

Event Time Altitude Azimuth Distance (km) Brightness Sun altitude
Rises 20:10:21 0° 309° (NW) 3,246 12.9 -1.2°
Reaches altitude 10° 20:14:39 10° 276° (W) 2,219 8.4 -1.7°
Maximum altitude 20:16:07 11° 259° (W) 2,103 7.9 -1.9°
Drops below altitude 10° 20:17:32 10° 242° (WSW) 2,152 7.6 -2.1°
Sets 20:21:30 0° 208° (SSW) 2,976 7.9 -2.6°
